| time (UTC) | temp F | wind direction | speed MPH | gust MPH | rain 1hr in | rain 24hr in | rain mn in | humidity % | barometer mb |
| 20260507014529 | 30 | 161 | 1.0 | 6.0 | 0.00 | 0.13 | 0.00 | 83 | 1016.6 |
| 20260507013608 | 30 | 206 | 1.0 | 7.0 | 0.00 | 0.13 | 0.00 | 83 | 1016.6 |
| 20260507012707 | 31 | 169 | 1.0 | 4.0 | 0.00 | 0.13 | 0.00 | 82 | 1016.6 |
| 20260507011808 | 31 | 216 | 1.0 | 5.0 | 0.00 | 0.13 | 0.00 | 82 | 1016.6 |
| 20260507010907 | 31 | 245 | 2.0 | 5.0 | 0.00 | 0.14 | 0.00 | 81 | 1016.3 |
| 20260507010008 | 31 | 242 | 1.0 | 6.0 | 0.00 | 0.14 | 0.00 | 85 | 1016.3 |
| 20260507005428 | 30 | 198 | 1.0 | 6.0 | 0.00 | 0.15 | 0.00 | 86 | 1016.3 |
| 20260507004507 | 31 | 186 | 1.0 | 3.0 | 0.00 | 0.15 | 0.00 | 87 | 1016.3 |
| 20260507003607 | 31 | 210 | 1.0 | 3.0 | 0.00 | 0.16 | 0.00 | 86 | 1016.3 |
| 20260507002728 | 31 | 209 | 1.0 | 2.0 | 0.00 | 0.17 | 0.00 | 85 | 1016.3 |
| 20260507001807 | 32 | 209 | 1.0 | 2.0 | 0.00 | 0.18 | 0.00 | 84 | 1016.3 |
| 20260507000907 | 32 | 213 | 0.0 | 2.0 | 0.00 | 0.19 | 0.00 | 85 | 1015.8 |
| 20260507000028 | 32 | 213 | 0.0 | 2.0 | 0.00 | 0.20 | 0.00 | 85 | 1015.8 |
| 20260506235407 | 32 | 0 | 0.0 | 0.0 | 0.00 | 0.21 | 0.00 | 84 | 1015.8 |
| 20260506234507 | 33 | 0 | 0.0 | 0.0 | 0.00 | 0.23 | 0.00 | 86 | 1015.8 |
| 20260506233607 | 32 | 0 | 0.0 | 0.0 | 0.00 | 0.25 | 0.00 | 85 | 1015.8 |
| 20260506232712 | 32 | 211 | 0.0 | 2.0 | 0.00 | 0.27 | 0.00 | 83 | 1015.8 |
| 20260506231813 | 33 | 185 | 0.0 | 3.0 | 0.00 | 0.30 | 0.00 | 82 | 1015.8 |
| 20260506230912 | 34 | 181 | 1.0 | 5.0 | 0.00 | 0.48 | 0.16 | 81 | 1015.8 |
| 20260506230012 | 35 | 185 | 2.0 | 7.0 | 0.00 | 0.51 | 0.16 | 75 | 1015.8 |
| 20260506225412 | 35 | 193 | 1.0 | 5.0 | 0.00 | 0.51 | 0.16 | 80 | 1015.8 |
| 20260506224533 | 36 | 229 | 2.0 | 6.0 | 0.00 | 0.52 | 0.16 | 79 | 1016.1 |
| 20260506223612 | 36 | 238 | 2.0 | 6.0 | 0.00 | 0.53 | 0.16 | 75 | 1016.1 |
| 20260506222712 | 35 | 335 | 1.0 | 4.0 | 0.00 | 0.53 | 0.16 | 80 | 1016.1 |
| 20260506221814 | 37 | 96 | 2.0 | 7.0 | 0.00 | 0.53 | 0.16 | 76 | 1016.1 |
| 20260506220911 | 36 | 183 | 1.0 | 4.0 | 0.00 | 0.53 | 0.16 | 77 | 1016.1 |
| 20260506220012 | 36 | 83 | 1.0 | 7.0 | 0.00 | 0.54 | 0.16 | 73 | 1016.1 |
| 20260506215411 | 36 | 95 | 1.0 | 3.0 | 0.00 | 0.54 | 0.16 | 75 | 1016.1 |
| 20260506214516 | 35 | 97 | 1.0 | 6.0 | 0.00 | 0.54 | 0.16 | 76 | 1016.1 |
| 20260506213612 | 36 | 98 | 1.0 | 3.0 | 0.00 | 0.54 | 0.16 | 73 | 1016.1 |
| 20260506212712 | 35 | 98 | 1.0 | 3.0 | 0.00 | 0.54 | 0.16 | 75 | 1016.6 |
| 20260506211812 | 35 | 97 | 1.0 | 4.0 | 0.00 | 0.54 | 0.16 | 72 | 1016.6 |
| 20260506210912 | 34 | 97 | 1.0 | 3.0 | 0.00 | 0.54 | 0.16 | 72 | 1016.6 |
| 20260506210012 | 34 | 100 | 2.0 | 3.0 | 0.00 | 0.54 | 0.16 | 74 | 1016.6 |
| 20260506205412 | 35 | 105 | 2.0 | 3.0 | 0.00 | 0.54 | 0.16 | 71 | 1016.6 |
| 20260506204516 | 35 | 91 | 2.0 | 6.0 | 0.00 | 0.54 | 0.16 | 69 | 1016.6 |
| 20260506203632 | 34 | 74 | 1.0 | 6.0 | 0.00 | 0.54 | 0.16 | 72 | 1016.6 |
| 20260506202711 | 34 | 101 | 2.0 | 5.0 | 0.00 | 0.54 | 0.16 | 73 | 1016.7 |
| 20260506201811 | 35 | 89 | 1.0 | 4.0 | 0.00 | 0.54 | 0.16 | 75 | 1016.7 |
| 20260506200911 | 34 | 97 | 1.0 | 4.0 | 0.00 | 0.54 | 0.16 | 76 | 1016.7 |
| 20260506200012 | 32 | 119 | 1.0 | 4.0 | 0.00 | 0.54 | 0.16 | 76 | 1016.7 |
| 20260506195432 | 32 | 125 | 1.0 | 4.0 | 0.00 | 0.54 | 0.16 | 75 | 1016.7 |
| 20260506194532 | 33 | 113 | 2.0 | 8.0 | 0.00 | 0.54 | 0.16 | 73 | 1016.7 |
| 20260506193632 | 32 | 85 | 1.0 | 4.0 | 0.00 | 0.54 | 0.16 | 75 | 1016.7 |
| 20260506192711 | 33 | 75 | 1.0 | 4.0 | 0.01 | 0.54 | 0.16 | 77 | 1017.1 |
| 20260506191811 | 33 | 109 | 3.0 | 5.0 | 0.01 | 0.54 | 0.16 | 75 | 1017.1 |
| 20260506190932 | 32 | 120 | 1.0 | 4.0 | 0.02 | 0.54 | 0.16 | 74 | 1017.1 |
| 20260506190011 | 32 | 123 | 1.0 | 3.0 | 0.02 | 0.54 | 0.16 | 76 | 1017.1 |
| 20260506185411 | 32 | 124 | 1.0 | 3.0 | 0.03 | 0.54 | 0.16 | 76 | 1017.1 |
| 20260506184514 | 32 | 112 | 1.0 | 6.0 | 0.03 | 0.54 | 0.16 | 78 | 1017.1 |
| 20260506183611 | 31 | 75 | 1.0 | 3.0 | 0.03 | 0.54 | 0.16 | 80 | 1017.1 |
| 20260506182711 | 31 | 73 | 1.0 | 4.0 | 0.02 | 0.53 | 0.15 | 79 | 1017.1 |
| 20260506181811 | 32 | 73 | 1.0 | 3.0 | 0.02 | 0.53 | 0.15 | 77 | 1017.1 |
| 20260506180911 | 31 | 68 | 1.0 | 3.0 | 0.01 | 0.52 | 0.14 | 75 | 1017.1 |
| 20260506180011 | 32 | 0 | 0.0 | 0.0 | 0.01 | 0.52 | 0.14 | 72 | 1017.1 |
| 20260506175411 | 33 | 109 | 1.0 | 6.0 | 0.00 | 0.51 | 0.13 | 71 | 1017.1 |
| 20260506174511 | 32 | 106 | 2.0 | 6.0 | 0.00 | 0.51 | 0.13 | 75 | 1017.1 |
| 20260506173610 | 32 | 115 | 2.0 | 7.0 | 0.00 | 0.51 | 0.13 | 74 | 1017.1 |
| 20260506172711 | 32 | 119 | 2.0 | 6.0 | 0.00 | 0.51 | 0.13 | 75 | 1016.4 |
| 20260506171811 | 32 | 121 | 1.0 | 3.0 | 0.00 | 0.51 | 0.13 | 74 | 1016.4 |
| 20260506170932 | 32 | 121 | 1.0 | 3.0 | 0.00 | 0.51 | 0.13 | 76 | 1016.4 |
| 20260506170011 | 31 | 121 | 0.0 | 3.0 | 0.00 | 0.51 | 0.13 | 76 | 1016.4 |
| 20260506165410 | 31 | 121 | 0.0 | 2.0 | 0.00 | 0.51 | 0.13 | 78 | 1016.4 |
| 20260506164511 | 30 | 121 | 0.0 | 3.0 | 0.00 | 0.51 | 0.13 | 77 | 1016.4 |
| 20260506163611 | 30 | 121 | 0.0 | 3.0 | 0.00 | 0.51 | 0.13 | 77 | 1016.4 |
| 20260506162732 | 30 | 121 | 0.0 | 2.0 | 0.00 | 0.51 | 0.13 | 80 | 1015.8 |
| 20260506161810 | 29 | 0 | 0.0 | 0.0 | 0.00 | 0.51 | 0.13 | 81 | 1015.8 |
| 20260506160911 | 28 | 0 | 0.0 | 0.0 | 0.00 | 0.51 | 0.13 | 83 | 1015.8 |
| 20260506160011 | 28 | 0 | 0.0 | 0.0 | 0.01 | 0.51 | 0.13 | 84 | 1015.8 |
| 20260506155411 | 28 | 0 | 0.0 | 0.0 | 0.01 | 0.51 | 0.13 | 85 | 1015.8 |
| 20260506154510 | 27 | 0 | 0.0 | 0.0 | 0.01 | 0.51 | 0.13 | 86 | 1015.8 |
| 20260506153631 | 27 | 0 | 0.0 | 0.0 | 0.01 | 0.51 | 0.13 | 86 | 1015.8 |
| 20260506152710 | 26 | 0 | 0.0 | 0.0 | 0.01 | 0.51 | 0.13 | 86 | 1015.7 |
| 20260506151810 | 26 | 0 | 0.0 | 0.0 | 0.02 | 0.51 | 0.13 | 86 | 1015.7 |
| 20260506150910 | 26 | 0 | 0.0 | 0.0 | 0.02 | 0.51 | 0.13 | 86 | 1015.7 |
| 20260506150010 | 26 | 0 | 0.0 | 0.0 | 0.01 | 0.50 | 0.12 | 86 | 1015.7 |
| 20260506145411 | 26 | 0 | 0.0 | 0.0 | 0.01 | 0.50 | 0.12 | 86 | 1015.7 |
| 20260506144510 | 26 | 0 | 0.0 | 0.0 | 0.02 | 0.50 | 0.12 | 87 | 1015.7 |
| 20260506143610 | 26 | 0 | 0.0 | 0.0 | 0.02 | 0.50 | 0.12 | 87 | 1015.7 |
| 20260506142710 | 26 | 0 | 0.0 | 0.0 | 0.02 | 0.50 | 0.12 | 87 | 1014.2 |
| 20260506141810 | 26 | 0 | 0.0 | 0.0 | 0.02 | 0.49 | 0.11 | 87 | 1014.2 |
| 20260506140910 | 26 | 0 | 0.0 | 0.0 | 0.02 | 0.49 | 0.11 | 88 | 1014.2 |
| 20260506140010 | 25 | 0 | 0.0 | 0.0 | 0.02 | 0.49 | 0.11 | 88 | 1014.2 |
| 20260506135410 | 25 | 0 | 0.0 | 0.0 | 0.02 | 0.49 | 0.11 | 88 | 1014.2 |
| 20260506134510 | 25 | 0 | 0.0 | 0.0 | 0.01 | 0.48 | 0.10 | 88 | 1014.2 |
| 20260506133610 | 25 | 0 | 0.0 | 0.0 | 0.02 | 0.48 | 0.10 | 88 | 1014.2 |
| 20260506132710 | 25 | 0 | 0.0 | 0.0 | 0.02 | 0.48 | 0.10 | 88 | 1014.2 |
| 20260506131810 | 25 | 0 | 0.0 | 0.0 | 0.01 | 0.47 | 0.09 | 88 | 1014.2 |
| 20260506130910 | 25 | 0 | 0.0 | 0.0 | 0.01 | 0.47 | 0.09 | 88 | 1014.2 |
| 20260506130010 | 25 | 0 | 0.0 | 0.0 | 0.01 | 0.47 | 0.09 | 88 | 1014.2 |
| 20260506125431 | 25 | 0 | 0.0 | 0.0 | 0.01 | 0.47 | 0.09 | 89 | 1014.2 |
| 20260506124510 | 25 | 0 | 0.0 | 0.0 | 0.01 | 0.47 | 0.09 | 89 | 1014.2 |
| 20260506123610 | 25 | 0 | 0.0 | 0.0 | 0.00 | 0.46 | 0.08 | 89 | 1014.2 |
| 20260506122710 | 25 | 0 | 0.0 | 0.0 | 0.00 | 0.46 | 0.08 | 88 | 1013.8 |
| 20260506121809 | 25 | 0 | 0.0 | 0.0 | 0.00 | 0.46 | 0.08 | 88 | 1013.8 |
| 20260506120909 | 25 | 0 | 0.0 | 0.0 | 0.00 | 0.46 | 0.08 | 88 | 1013.8 |
| 20260506120010 | 25 | 0 | 0.0 | 0.0 | 0.00 | 0.46 | 0.08 | 88 | 1013.8 |
| 20260506115410 | 25 | 0 | 0.0 | 0.0 | 0.00 | 0.46 | 0.08 | 88 | 1013.8 |
| 20260506114510 | 25 | 0 | 0.0 | 0.0 | 0.00 | 0.46 | 0.08 | 88 | 1013.8 |
| 20260506113630 | 25 | 0 | 0.0 | 0.0 | 0.00 | 0.46 | 0.08 | 88 | 1013.8 |
| 20260506112709 | 25 | 0 | 0.0 | 0.0 | 0.00 | 0.46 | 0.08 | 88 | 1013.7 |
| 20260506111831 | 25 | 0 | 0.0 | 0.0 | 0.00 | 0.46 | 0.08 | 88 | 1013.7 |
| 20260506110909 | 25 | 0 | 0.0 | 0.0 | 0.00 | 0.46 | 0.08 | 89 | 1013.7 |
| 20260506110009 | 25 | 0 | 0.0 | 0.0 | 0.00 | 0.46 | 0.08 | 89 | 1013.7 |
| 20260506105409 | 25 | 0 | 0.0 | 0.0 | 0.00 | 0.46 | 0.08 | 89 | 1013.7 |
| 20260506104509 | 25 | 0 | 0.0 | 0.0 | 0.00 | 0.46 | 0.08 | 89 | 1013.7 |
| 20260506103610 | 25 | 0 | 0.0 | 0.0 | 0.00 | 0.46 | 0.08 | 89 | 1013.7 |
| 20260506102710 | 25 | 0 | 0.0 | 0.0 | 0.00 | 0.46 | 0.08 | 88 | 1013.9 |
| 20260506101830 | 25 | 0 | 0.0 | 0.0 | 0.00 | 0.46 | 0.08 | 88 | 1013.9 |
| 20260506100930 | 25 | 0 | 0.0 | 0.0 | 0.00 | 0.46 | 0.08 | 88 | 1013.9 |
| 20260506095409 | 26 | 0 | 0.0 | 0.0 | 0.01 | 0.46 | 0.08 | 88 | 1013.8 |
| 20260506094509 | 26 | 0 | 0.0 | 0.0 | 0.02 | 0.46 | 0.08 | 88 | 1013.8 |
| 20260506093614 | 26 | 0 | 0.0 | 0.0 | 0.03 | 0.46 | 0.08 | 88 | 1013.8 |
| 20260506092709 | 26 | 0 | 0.0 | 0.0 | 0.03 | 0.46 | 0.08 | 88 | 1013.9 |
| 20260506091809 | 26 | 0 | 0.0 | 0.0 | 0.03 | 0.46 | 0.08 | 89 | 1013.9 |
| 20260506090909 | 26 | 0 | 0.0 | 0.0 | 0.03 | 0.46 | 0.08 | 89 | 1013.9 |
| 20260506090009 | 26 | 0 | 0.0 | 0.0 | 0.03 | 0.45 | 0.07 | 89 | 1013.9 |
| 20260506085409 | 26 | 0 | 0.0 | 0.0 | 0.03 | 0.45 | 0.07 | 89 | 1013.9 |
| 20260506084509 | 26 | 0 | 0.0 | 0.0 | 0.02 | 0.44 | 0.06 | 89 | 1013.9 |
| 20260506083609 | 26 | 0 | 0.0 | 0.0 | 0.01 | 0.43 | 0.05 | 89 | 1013.9 |
| 20260506082709 | 26 | 0 | 0.0 | 0.0 | 0.01 | 0.43 | 0.05 | 89 | 1014.1 |
| 20260506081809 | 26 | 0 | 0.0 | 0.0 | 0.02 | 0.43 | 0.05 | 89 | 1014.1 |
| 20260506080909 | 26 | 0 | 0.0 | 0.0 | 0.02 | 0.43 | 0.05 | 89 | 1014.1 |
| 20260506072710 | 26 | 0 | 0.0 | 0.0 | 0.03 | 0.42 | 0.04 | 89 | 1014.0 |
| 20260506071809 | 26 | 0 | 0.0 | 0.0 | 0.02 | 0.41 | 0.03 | 89 | 1014.0 |
| 20260506070910 | 26 | 0 | 0.0 | 0.0 | 0.02 | 0.41 | 0.03 | 89 | 1014.0 |
| 20260506061808 | 27 | 0 | 0.0 | 0.0 | 0.04 | 0.39 | 0.01 | 89 | 1012.9 |
| 20260506060931 | 27 | 0 | 0.0 | 0.0 | 0.05 | 0.39 | 0.01 | 89 | 1012.9 |
| 20260506050908 | 27 | 0 | 0.0 | 0.0 | 0.02 | 0.34 | 0.34 | 89 | 1012.9 |
| 20260506044529 | 27 | 0 | 0.0 | 0.0 | 0.01 | 0.33 | 0.33 | 89 | 1012.9 |
| 20260506043608 | 27 | 0 | 0.0 | 0.0 | 0.00 | 0.32 | 0.32 | 89 | 1012.9 |
| 20260506042729 | 27 | 0 | 0.0 | 0.0 | 0.01 | 0.32 | 0.32 | 89 | 1012.9 |
| 20260506041808 | 27 | 0 | 0.0 | 0.0 | 0.01 | 0.32 | 0.32 | 89 | 1012.9 |
| 20260506040908 | 27 | 0 | 0.0 | 0.0 | 0.02 | 0.32 | 0.32 | 88 | 1012.9 |
| 20260506040008 | 27 | 0 | 0.0 | 0.0 | 0.02 | 0.32 | 0.32 | 88 | 1012.9 |
| 20260506035429 | 28 | 0 | 0.0 | 0.0 | 0.03 | 0.32 | 0.32 | 88 | 1012.9 |
| 20260506034508 | 28 | 0 | 0.0 | 0.0 | 0.04 | 0.32 | 0.32 | 88 | 1012.9 |
| 20260506033609 | 28 | 0 | 0.0 | 0.0 | 0.05 | 0.32 | 0.32 | 88 | 1012.9 |
| 20260506032708 | 28 | 0 | 0.0 | 0.0 | 0.05 | 0.31 | 0.31 | 88 | 1012.0 |
| 20260506031808 | 28 | 0 | 0.0 | 0.0 | 0.05 | 0.31 | 0.31 | 88 | 1012.0 |
| 20260506030908 | 28 | 0 | 0.0 | 0.0 | 0.04 | 0.31 | 0.30 | 88 | 1012.0 |
| 20260506030008 | 28 | 121 | 0.0 | 2.0 | 0.05 | 0.32 | 0.30 | 88 | 1012.0 |
| 20260506025408 | 28 | 0 | 0.0 | 0.0 | 0.04 | 0.32 | 0.29 | 88 | 1012.0 |
| 20260506024508 | 29 | 0 | 0.0 | 0.0 | 0.03 | 0.35 | 0.28 | 87 | 1012.0 |
| 20260506023629 | 29 | 0 | 0.0 | 0.0 | 0.02 | 0.38 | 0.27 | 86 | 1012.0 |
| 20260506022708 | 30 | 0 | 0.0 | 0.0 | 0.01 | 0.41 | 0.26 | 87 | 1010.9 |
| 20260506021807 | 30 | 121 | 0.0 | 1.0 | 0.01 | 0.44 | 0.26 | 86 | 1010.9 |
| 20260506020929 | 30 | 121 | 0.0 | 1.0 | 0.02 | 0.44 | 0.26 | 86 | 1010.9 |
| 20260506020029 | 30 | 121 | 0.0 | 1.0 | 0.01 | 0.43 | 0.25 | 86 | 1010.9 |
| 20260506015408 | 30 | 121 | 0.0 | 1.0 | 0.02 | 0.43 | 0.25 | 86 | 1010.9 |